Regional Weather Roundup
Issued by NWS Cleveland, OH

Home | Current Version | Previous Version | Text Only | Print | Product List | Glossary Off
Versions: 1 2 3 4 5 6 7 8 9 10 11 12 13 14 15 16 17 18 19 20 21 22 23 24 25 26 27 28 29 30 31 32 33 34 35 36 37 38 39 40 41 42 43 44 45 46 47 48 49 50

000
ASUS41 KCLE 230900
RWRCLE
OHIO REGIONAL WEATHER ROUNDUP
NATIONAL WEATHER SERVICE WILMINGTON, OH
500 AM EDT WED JUL 23 2014

NOTE: "FAIR" INDICATES FEW OR NO CLOUDS BELOW 12,000 FEET WITH NO
SIGNIFICANT WEATHER AND/OR OBSTRUCTIONS TO VISIBILITY.

OHZ001>008-015>018-024>027-034-035-043-044-231000-
   NORTHWEST OHIO

CITY           SKY/WX    TMP DP  RH WIND       PRES   REMARKS
DEFIANCE       LGT RAIN  75  69  81 SW6       29.92F
FINDLAY        LGT RAIN  73  70  90 S6        29.99S FOG
TOLEDO EXPRESS LGT RAIN  72  70  93 SW5       29.95F FOG
TOLEDO METCALF LGT RAIN  73  70  90 S10       29.94F
LIMA           LGT RAIN  71  68  90 SE6       30.00F FOG
$$

OHZ009>014-019>023-028>033-038-089-231000-
   NORTHEAST OHIO

CITY           SKY/WX    TMP DP  RH WIND       PRES   REMARKS
CLE-HOPKINS    CLOUDY    76  67  73 W9        29.99R
CLE-LAKEFRONT  CLOUDY    78  68  71 W10       29.95R
CUY CO. ARPT   NOT AVBL
LORAIN-ELYRIA  LGT RAIN  78  68  71 NW16G22   29.98R
ASHTABULA      MOCLDY    73  68  84 SW7       29.96S
AKRON-CANTON   MOCLDY    74  68  81 SW6       30.01R
WOOSTER        NOT AVBL
MANSFIELD      CLOUDY    75  67  76 W9        30.03R
YOUNGSTOWN     MOCLDY    73  69  87 SW6       29.98R
$$

OHZ042-051>053-060>062-070>072-077>081-231000-
  SOUTHWEST OHIO

CITY           SKY/WX    TMP DP  RH WIND       PRES   REMARKS
CINC-COVINGTON PTCLDY    74  68  81 SW3       30.03R
CINC-LUNKEN    CLEAR     70  69  97 CALM      30.02R
HAMILTON       PTCLDY    69  68  96 CALM      30.03R FOG
DAYTON         NOT AVBL
WRIGHT-PAT AFB PTCLDY    72  67  84 S2        30.02R
DAYTON GENERAL PTCLDY    72  68  87 CALM      30.03R
WILMINGTON     CLEAR     69  66  90 W3        30.04R
$$

OHZ036-037-039>041-045>050-054>059-063>069-073>076-082>088-231000-
  CENTRAL AND SOUTHEAST OHIO

CITY           SKY/WX    TMP DP  RH WIND       PRES   REMARKS
COLUMBUS       MOCLDY    76  67  73 W6        30.01R
OSU AIRPORT    CLOUDY    72  67  84 W6        30.02R
BOLTON FIELD   NOT AVBL
RICKENBACK AFB NOT AVBL
NEWARK         CLEAR     69  67  93 CALM      30.02R FOG
MARION         LGT RAIN  75  67  76 NW17G25   30.04R
LANCASTER      MOCLDY    72  69  90 CALM      30.02R
ZANESVILLE     MOCLDY    71  68  90 NW5       30.02R
NEW PHILLY     MOCLDY    72  70  93 CALM      30.01R FOG
$$



USA.gov is the U.S. government's official web portal to all federal, state and local government web resources and services.